Other Public Products
Issued by NWS Charleston, SC

Current Version | Previous Version | Graphics & Text | Print | Product List | Glossary On
Versions: 1 2 3 4 5 6 7 8 9 10 11 12 13 14 15 16 17 18 19 20 21 22 23 24 25 26 27 28 29 30 31 32 33 34 35 36 37 38 39 40 41 42 43 44 45 46 47 48 49 50
889
FPUS82 KCHS 191412
OPUCHS

TEST...KCHS/KSAV Gateway Observations...TEST
National Weather Service Charleston SC
1000 AM EDT THU APR 19 2018

NOTE: "fair" indicates few or no clouds below 12,000 feet with no
significant weather and/or obstructions to visibility.

SCZ050-WAZ558-NCZ071-TXZ119-213-PAZ071-DCZ001-FLZ074-172-MI076-
NYZ176-178-MAZ016-IL014-TNZ027-NJZ106-GAZ044-MD014-191500-

...Gateway Observations for Charleston International...

CITY           SKY/WX    TMP DP  RH WIND       PRES   REMARKS
Chas Airport   FAIR      74  62  66 W13G23    29.94R
Seattle        PTCLDY    43  40  89 SE5       30.23R
Charlotte      FAIR      73  55  53 W12       29.83R
Dallas DFW     MOSUNNY   56  32  40 NE13      30.37R
Dallas Love    MOSUNNY   58  31  35 NE15      30.38R
Philladelphia  LGT RAIN  49  38  65 NW10      29.71R
Wash National  CLOUDY    54  45  71 W3        29.73F
Baltimore      PTSUNNY   51  43  74 W9        29.71R
Miami          FAIR      76  64  66 SW5       30.13R
Detroit        FAIR      41  23  48 N13       30.07R
Newark         CLOUDY    44  39  82 N12       29.71R
Laguardia      PTSUNNY   44  38  79 N12       29.69S
J F K          CLOUDY    44  40  85 N15       29.70R
Boston Logan   RAIN      36  34  93 NW3       29.71F FOG
Ft. Lauderdale FAIR      76  65  68 S5        30.12S
Chicago O`Hare FAIR      36  27  69 N12       30.27R WCI  28
Chicago Midway FAIR      39  30  70 N12       30.27R WCI  32
Houston Bush   FAIR      65  37  35 N14       30.28R
Houston Hobby  CLOUDY    65  37  35 NE17      30.27R
Nashville      CLOUDY    43  26  51 NW12      30.22R
Atlanta        FAIR      62  43  49 NW16G31   30.02R

$$

GAZ044-118-TXZ119-213-NCZ071-DCZ001-MDZ014-506-PAZ021-071-NJZ106-
NYZ176-178-MAZ106-OHZ011-021-055-MIZ076-KYZ091-ILZ014-INZ047-
MNZ060-ONZ431-191500-

...Gateway Observations for Savannah International...

CITY           SKY/WX    TMP DP  RH WIND       PRES   REMARKS
Savannah Arpt  FAIR      74  62  66 W15       29.98F
Atlanta        FAIR      62  43  49 NW16G31   30.02R
Charlotte      FAIR      73  55  53 W12       29.83R
Dallas DFW     MOSUNNY   56  32  40 NE13      30.37R
Houston Bush   FAIR      65  37  35 N14       30.28R
Wash National  CLOUDY    54  45  71 W3        29.73F
Wash Dulles    FAIR      54  46  74 VRB5      29.72F
Baltimore      PTSUNNY   51  43  74 W9        29.71R
Philadelphia   LGT RAIN  49  38  65 NW10      29.71R
Newark         CLOUDY    44  39  82 N12       29.71R
Laguardia      PTSUNNY   44  38  79 N12       29.69S
J F K          CLOUDY    44  40  85 N15       29.70R
Boston         RAIN      36  34  93 NW3       29.71F FOG
Pittsburg      LGT SNOW  34  32  92 NW17      29.90R FOG     WCI  23
Akron          FLURRIES  34  28  79 NW13      29.97R WCI  25
Cleveland      CLOUDY    36  30  79 NW20G25   30.03R WCI  25
Cincinnati     CLOUDY    38  31  76 NW14      30.12R WCI  30
Columbus       PTSUNNY   35  32  88 N14G22    30.07R WCI  26
Detroit        FAIR      41  23  48 N13       30.07R
Chicago O`Hare FAIR      36  27  69 N12       30.27R WCI  28
Minneapolis    FAIR      37  20  50 VRB5      30.45R WCI  33
Indianapolis   CLOUDY    38  29  70 N16       30.20R WCI  29
Toronto Canada PTSUNNY   34  23  64 N16G29    29.90R WCI  23

$$




USA.gov is the U.S. government's official web portal to all federal, state and local government web resources and services.